Wind_Speed
5 5 5 4 4 5 6 8 8 9 8 10 10 11 11 11 11 11 10 9 8 8 8 8 7 7 8 7 6 7 7 7 6 5 5 5 4 4 4 3 3 3 3
5 5 5 5 5 5 7 9 9 9 9 10 11 11 11 11 12 11 10 9 9 8 8 8 7 6 7 7 7 7 6 5 6 5 5 5 5 4 4 3 3 3 3
6 6 6 6 6 6 7 8 9 10 10 10 11 11 11 11 11 10 9 9 9 8 7 7 7 7 7 6 6 6 6 5 6 5 4 5 4 4 4 4 4 3 3
7 7 6 6 7 6 7 8 9 10 10 10 10 12 12 11 10 10 9 9 9 8 8 7 7 7 6 6 6 6 6 5 4 4 4 4 3 3 4 3 3 3 3
7 7 6 6 7 8 8 8 8 9 9 9 10 11 12 12 11 10 9 9 9 8 8 8 7 7 7 6 6 6 5 4 3 3 4 3 3 3 3 2 3 3 3
8 7 8 7 8 8 8 8 9 9 9 10 10 11 12 12 11 10 10 10 9 8 8 8 8 8 8 7 6 5 5 3 3 4 3 3 3 3 3 3 3 3 3
8 8 8 8 8 7 8 8 9 9 8 9 10 10 10 11 10 9 10 10 9 8 7 7 6 6 6 6 6 6 5 4 4 4 3 3 3 3 3 3 3 3 3
7 8 8 7 7 8 8 8 8 8 8 9 9 9 9 9 9 9 9 9 8 7 7 7 6 5 5 5 5 5 5 5 4 3 3 3 3 3 3 3 3 3 3
8 7 7 7 8 7 7 8 8 8 8 9 9 9 9 10 10 9 8 8 7 7 6 6 5 4 4 4 4 4 4 4 3 3 3 3 4 4 5 5 4 4 4
7 7 7 8 8 8 8 8 8 9 9 8 8 8 9 9 9 8 8 8 7 7 6 5 4 4 4 4 4 3 3 3 3 3 3 4 5 5 6 6 6 6 5
7 7 7 7 7 8 8 7 8 9 8 7 7 7 8 7 8 7 7 7 7 7 6 6 4 4 4 4 3 3 3 4 4 4 5 5 6 6 6 6 6 6 6
7 7 7 7 7 7 7 7 6 7 7 6 6 5 5 6 6 6 6 6 6 6 6 5 5 4 4 3 4 4 4 4 5 5 6 6 6 6 6 6 6 6 6
8 8 7 7 7 6 6 6 6 6 5 5 5 5 4 5 5 5 5 6 6 5 5 5 4 4 4 4 5 5 5 5 6 6 6 6 6 6 6 6 6 6 7
8 7 7 7 7 6 6 5 5 5 5 4 4 4 4 3 4 4 4 5 6 6 5 4 4 5 5 5 5 6 6 7 7 8 7 6 5 6 7 8 7 7 7
7 7 7 7 7 6 6 5 5 5 4 3 3 3 3 2 2 2 3 4 4 5 5 5 5 6 6 6 6 7 8 8 9 8 8 6 5 6 7 8 9 9 9
7 7 7 7 7 6 6 5 5 4 4 4 3 3 3 2 2 2 2 3 5 5 5 5 6 6 7 7 8 9 9 9 9 9 9 8 7 7 7 8 8 9 9
6 6 6 6 6 6 6 5 5 4 4 3 3 3 3 2 2 2 2 4 5 5 5 6 6 7 7 8 9 9 9 9 9 9 9 10 9 8 8 8 8 9 9
5 5 5 5 5 5 5 4 4 3 3 2 2 2 2 2 2 2 2 3 4 5 6 6 7 7 8 8 9 9 9 10 10 10 10 10 10 9 9 9 9 9 9
5 5 5 5 4 4 4 4 4 3 3 2 2 2 1 0 1 1 2 2 3 5 6 7 7 8 9 9 9 9 9 9 10 10 10 11 10 10 10 10 10 10 10
4 4 4 3 3 3 4 4 4 3 2 2 2 2 1 2 2 2 2 3 3 4 5 6 7 8 8 7 7 8 9 10 11 11 12 11 11 11 11 11 11 11 12
3 3 3 3 3 3 3 3 3 3 2 2 2 1 2 2 2 2 2 2 3 4 5 6 6 6 7 7 8 9 9 10 11 12 11 11 10 11 11 11 12 13 13
2 2 2 2 2 2 2 2 3 2 2 2 2 3 3 3 3 3 4 3 3 4 4 5 5 6 7 8 9 9 10 10 11 11 11 11 11 11 11 12 13 14 14
1 1 1 1 1 1 1 2 2 2 2 2 2 3 4 3 4 4 4 5 5 5 5 6 6 7 7 8 8 9 10 11 11 12 12 13 13 12 12 12 13 14 14
2 1 1 1 1 2 2 2 2 3 2 3 3 4 5 5 5 5 5 5 5 5 6 6 7 8 8 8 9 10 10 11 11 11 12 13 13 13 13 14 14 14 14
3 3 2 2 2 3 3 3 4 4 3 4 4 4 5 6 6 6 6 6 6 6 7 7 8 8 9 10 10 11 11 10 10 11 12 13 13 13 13 13 13 14 14
5 5 5 4 4 4 4 5 5 5 5 5 5 6 6 6 6 6 7 7 8 8 8 9 9 10 10 10 11 11 12 11 11 11 12 12 13 14 14 14 15 15 15
Wind_Direction
99 105 112 120 128 126 124 129 145 151 149 158 160 156 152 150 151 152 153 152 151 151 151 154 154 149 146 149 154 162 163 166 169 169 170 178 186 189 189 188 184 191 214
94 104 109 117 124 124 125 130 143 146 148 153 156 151 149 148 150 150 148 148 147 146 147 154 157 159 151 151 157 156 155 156 166 170 180 186 191 196 194 193 196 209 225
92 101 111 118 123 124 125 128 137 144 148 151 152 150 148 149 151 150 147 146 152 153 150 151 153 157 157 153 154 149 149 157 166 173 184 196 199 208 212 207 216 231 238
96 104 115 113 119 117 127 133 137 144 148 152 152 150 149 150 150 146 145 143 149 149 146 145 149 151 155 154 151 150 148 154 169 185 200 205 208 213 217 223 231 238 243
95 103 109 112 110 112 121 130 135 141 146 151 150 150 150 149 149 146 143 142 142 144 143 145 144 150 151 156 159 153 153 157 171 200 208 208 216 209 213 228 238 246 251
94 103 111 111 109 110 114 118 126 134 138 143 143 147 150 150 149 150 148 144 145 145 142 146 150 150 154 162 163 164 171 176 195 201 212 218 220 223 224 237 242 245 256
93 101 108 111 113 112 110 114 121 127 137 145 146 151 152 149 147 148 151 149 147 150 150 154 156 156 156 166 170 177 180 196 210 209 217 230 234 233 234 236 238 253 256
92 98 109 112 111 112 112 116 120 124 133 142 148 153 153 152 153 154 155 153 155 155 156 156 154 158 167 168 172 180 191 206 213 221 220 237 244 247 244 239 241 261 266
91 91 102 113 113 116 113 113 118 122 130 140 146 152 158 160 160 163 162 162 164 164 161 162 161 161 168 175 177 180 195 204 219 238 244 257 258 253 251 256 256 266 270
94 93 96 105 114 116 113 112 117 125 128 133 144 156 163 168 169 172 174 174 174 172 173 173 172 170 177 181 189 202 211 226 249 255 262 263 262 259 258 261 263 264 266
95 92 93 96 105 112 113 113 119 120 124 129 138 153 161 161 171 179 179 175 175 177 180 183 189 191 191 197 199 215 233 253 261 266 269 268 263 261 256 258 262 263 264
93 94 94 94 102 106 111 113 119 120 120 126 138 143 155 170 176 179 180 178 180 183 188 192 204 211 216 225 233 242 253 262 266 265 270 270 266 263 258 257 262 272 273
93 96 95 94 101 106 112 118 121 122 121 124 131 137 141 160 170 176 176 187 192 195 205 208 212 222 238 244 252 262 269 274 282 282 280 274 270 267 265 265 266 272 277
91 92 90 93 98 104 109 115 122 128 126 128 145 147 138 147 167 177 187 195 201 204 213 217 218 233 246 253 261 266 271 278 284 288 291 282 275 270 268 269 268 266 270
90 88 86 88 94 100 101 106 119 125 125 132 149 152 142 152 177 197 211 207 212 218 225 231 240 248 254 264 270 274 276 272 276 281 289 279 270 267 270 271 270 266 264
89 86 86 86 93 95 95 100 106 110 113 130 137 140 147 159 171 198 215 218 223 235 243 253 256 257 264 269 271 274 275 274 277 279 284 281 276 276 274 272 272 270 268
88 88 87 87 86 86 89 90 94 102 99 106 126 127 143 159 177 201 228 237 237 240 245 254 261 264 263 268 270 273 275 274 275 279 283 284 279 280 284 281 276 273 274
82 85 87 86 81 79 81 84 84 93 97 91 102 117 132 150 175 202 223 240 247 248 252 256 260 269 270 273 271 271 275 276 276 279 283 283 280 282 286 283 277 277 278
80 84 87 84 79 77 76 76 78 83 88 96 99 84 87 143 206 232 239 248 259 256 251 257 261 266 273 280 278 275 277 279 281 280 280 282 281 282 285 285 285 283 283
80 80 84 82 84 82 75 69 70 68 72 81 78 59 23 352 332 307 260 252 255 253 259 264 267 269 276 279 281 281 284 284 283 283 284 285 284 284 283 285 288 286 285
84 79 74 76 73 67 66 59 54 48 62 51 38 11 345 338 342 340 314 280 271 267 265 266 272 276 279 281 281 280 284 287 287 286 285 284 282 282 284 284 287 288 289
86 79 71 66 60 62 61 40 34 39 32 20 20 2 352 341 343 340 346 338 319 301 283 295 295 285 286 287 283 282 283 287 291 290 287 287 286 285 282 282 287 288 288
141 79 61 43 17 19 6 349 353 14 358 341 353 354 345 336 341 336 334 324 316 310 296 297 296 292 294 296 293 288 288 289 293 294 292 289 292 290 284 289 292 292 292
213 236 322 344 339 335 327 324 326 331 333 336 333 333 335 329 330 329 323 314 307 304 296 292 294 296 301 303 301 296 293 292 294 299 297 294 293 289 286 288 292 292 292
234 259 282 293 303 311 311 310 316 317 308 326 333 326 332 336 337 335 328 323 311 304 302 297 297 295 299 301 303 302 298 298 296 297 298 297 298 295 292 291 292 292 291
243 258 271 283 298 299 297 299 305 308 309 316 322 328 329 333 334 329 323 319 316 309 306 304 298 296 298 299 302 303 304 304 301 300 301 301 301 299 297 294 291 290 289
Height
5878 5877 5877 5876 5876 5875 5874 5873 5874 5876 5877 5877 5878 5880 5881 5882 5883 5884 5885 5886 5887 5887 5888 5889 5889 5890 5890 5891 5891 5892 5893 5894 5894 5895 5896 5896 5897 5897 5898 5898 5898 5899 5899
5878 5878 5877 5877 5877 5876 5875 5874 5875 5876 5877 5878 5879 5880 5882 5883 5884 5885 5886 5886 5887 5888 5888 5889 5890 5890 5891 5891 5892 5893 5894 5894 5895 5896 5896 5897 5897 5898 5898 5898 5899 5899 5899
5879 5878 5878 5878 5877 5877 5877 5876 5877 5878 5878 5879 5880 5881 5882 5883 5884 5885 5886 5887 5888 5889 5889 5889 5890 5891 5891 5892 5893 5894 5895 5895 5896 5896 5896 5897 5897 5898 5898 5898 5899 5899 5898
5880 5879 5879 5879 5878 5878 5878 5878 5878 5879 5879 5880 5881 5882 5883 5884 5885 5886 5887 5888 5889 5889 5890 5891 5891 5892 5892 5893 5894 5895 5896 5896 5896 5896 5896 5897 5897 5898 5898 5898 5898 5898 5898
5880 5880 5880 5880 5879 5878 5878 5879 5879 5879 5880 5881 5882 5883 5884 5885 5886 5887 5888 5889 5889 5890 5891 5892 5892 5892 5893 5893 5894 5895 5896 5896 5897 5896 5896 5897 5897 5898 5898 5898 5898 5898 5898
5882 5881 5881 5881 5880 5880 5880 5880 5880 5880 5881 5882 5883 5884 5885 5886 5887 5888 5889 5889 5890 5891 5892 5892 5893 5893 5893 5894 5895 5896 5896 5897 5896 5896 5896 5897 5897 5897 5898 5898 5898 5898 5898
5883 5883 5882 5882 5882 5881 5881 5881 5881 5881 5882 5883 5884 5885 5886 5887 5888 5889 5889 5890 5891 5892 5893 5893 5893 5893 5894 5895 5895 5896 5896 5897 5896 5896 5897 5897 5897 5897 5897 5897 5897 5897 5897
5885 5884 5884 5884 5884 5883 5883 5883 5882 5882 5883 5884 5885 5886 5887 5888 5889 5890 5890 5891 5892 5893 5893 5894 5894 5894 5895 5895 5896 5896 5897 5897 5896 5896 5896 5896 5897 5897 5897 5897 5897 5897 5896
5886 5886 5885 5885 5885 5885 5884 5884 5884 5884 5884 5885 5886 5887 5888 5889 5890 5891 5892 5892 5893 5893 5894 5894 5895 5895 5895 5896 5896 5896 5896 5897 5896 5896 5896 5896 5896 5896 5897 5896 5896 5896 5896
5888 5888 5887 5887 5886 5886 5886 5885 5885 5885 5886 5886 5887 5888 5889 5889 5890 5891 5892 5893 5894 5894 5894 5895 5895 5896 5896 5896 5896 5897 5896 5896 5896 5896 5896 5895 5895 5895 5895 5895 5895 5895 5895
5890 5889 5889 5888 5888 5888 5887 5887 5887 5887 5887 5888 5888 5888 5889 5890 5891 5892 5893 5893 5894 5894 5894 5895 5896 5896 5896 5896 5896 5896 5896 5896 5896 5895 5895 5894 5894 5894 5894 5894 5894 5894 5893
5891 5891 5891 5890 5890 5889 5889 5889 5889 5889 5889 5889 5889 5890 5890 5891 5892 5892 5893 5893 5894 5894 5895 5895 5896 5896 5896 5896 5896 5896 5896 5895 5895 5894 5893 5892 5892 5892 5892 5892 5892 5892 5892
5893 5893 5892 5892 5891 5891 5891 5890 5890 5890 5890 5890 5890 5890 5891 5891 5892 5892 5893 5893 5894 5894 5895 5895 5895 5896 5896 5896 5896 5896 5895 5895 5894 5893 5892 5890 5890 5890 5891 5891 5891 5892 5891
5895 5895 5894 5893 5893 5892 5892 5892 5892 5891 5891 5891 5891 5891 5891 5892 5892 5893 5893 5893 5894 5894 5895 5895 5895 5895 5895 5895 5895 5895 5894 5894 5893 5892 5890 5889 5889 5889 5889 5890 5890 5890 5890
5897 5896 5896 5895 5894 5894 5893 5893 5893 5892 5892 5891 5891 5891 5892 5892 5893 5893 5893 5893 5894 5894 5894 5894 5895 5895 5894 5894 5894 5894 5893 5893 5892 5891 5890 5889 5889 5889 5889 5889 5889 5888 5888
5899 5898 5897 5896 5896 5895 5895 5894 5894 5893 5892 5892 5892 5892 5892 5893 5893 5893 5893 5893 5893 5893 5894 5894 5894 5894 5894 5893 5893 5893 5892 5891 5891 5890 5889 5889 5888 5888 5888 5887 5887 5886 5886
5900 5899 5899 5898 5897 5896 5896 5895 5894 5894 5894 5893 5893 5893 5893 5893 5893 5893 5893 5893 5893 5893 5893 5893 5893 5893 5893 5892 5892 5891 5890 5890 5889 5889 5888 5888 5887 5886 5886 5885 5885 5885 5884
5901 5900 5900 5899 5898 5897 5897 5896 5895 5895 5894 5894 5894 5893 5893 5893 5893 5893 5892 5892 5892 5892 5892 5892 5892 5892 5891 5891 5890 5890 5889 5888 5888 5887 5887 5886 5885 5885 5884 5884 5883 5883 5882
5902 5901 5901 5900 5899 5899 5898 5897 5896 5895 5895 5895 5894 5894 5893 5893 5893 5892 5892 5891 5891 5891 5890 5890 5891 5890 5890 5889 5888 5888 5887 5887 5886 5886 5885 5884 5883 5883 5882 5882 5881 5881 5880
5903 5902 5902 5901 5900 5900 5899 5898 5897 5896 5895 5895 5894 5894 5893 5893 5892 5892 5891 5891 5890 5890 5889 5889 5889 5888 5888 5888 5887 5886 5886 5885 5884 5884 5883 5882 5881 5881 5880 5880 5879 5878 5878
5904 5903 5902 5902 5901 5900 5899 5898 5897 5896 5895 5895 5894 5894 5893 5892 5891 5891 5891 5890 5890 5889 5888 5888 5887 5887 5887 5886 5886 5885 5884 5883 5882 5881 5880 5880 5879 5878 5878 5877 5876 5875 5874
5904 5904 5903 5902 5901 5900 5900 5899 5898 5897 5896 5895 5894 5893 5893 5892 5891 5891 5890 5890 5889 5888 5888 5887 5887 5886 5885 5884 5884 5883 5882 5882 5880 5879 5878 5877 5876 5876 5875 5874 5874 5873 5872
5904 5904 5903 5902 5902 5901 5900 5899 5898 5897 5896 5896 5895 5894 5893 5892 5891 5890 5890 5889 5888 5887 5887 5886 5885 5884 5884 5883 5882 5881 5880 5879 5878 5877 5876 5875 5874 5873 5872 5871 5871 5870 5868
5904 5903 5903 5902 5901 5901 5900 5899 5898 5897 5896 5895 5894 5893 5893 5891 5890 5889 5889 5888 5887 5886 5885 5885 5884 5883 5882 5881 5880 5879 5878 5877 5876 5875 5874 5872 5871 5870 5869 5868 5867 5866 5865
5904 5903 5903 5902 5901 5900 5899 5899 5898 5897 5896 5894 5893 5892 5891 5890 5889 5888 5888 5887 5886 5885 5884 5883 5882 5881 5880 5879 5877 5876 5874 5874 5873 5872 5871 5870 5868 5867 5866 5865 5864 5863 5862
5903 5903 5902 5901 5901 5900 5899 5898 5897 5896 5895 5893 5892 5891 5891 5890 5889 5888 5887 5886 5885 5884 5883 5882 5881 5879 5878 5877 5875 5874 5873 5872 5871 5869 5868 5867 5865 5864 5863 5861 5860 5859 5858